Location: Newark
(53.4333°N, 36.0000°E)
Time: 05:37:58
(UTC+00:00)

ISS - Visible Passes

Search period start: 23 September 2019 00:00
Search period end: 03 October 2019 00:00
Orbit: 411 x 421 km, 51.6° (Epoch: 23 September)

Date Brightness Start Highest point End Pass type
(mag) Time Alt. Az. Time Alt. Az. Time Alt. Az.
23 Sep -3.1 17:03:49 10° SW 17:06:53 35° SSE 17:07:38 31° SE visible
23 Sep -0.9 18:40:05 10° W 18:40:32 13° WSW 18:40:32 13° WSW visible
24 Sep -2.6 16:15:41 10° SSW 16:18:32 27° SSE 16:21:09 12° E visible
24 Sep -2.9 17:51:40 10° WSW 17:54:03 41° SW 17:54:03 41° SW visible
25 Sep -3.6 17:03:16 10° WSW 17:06:31 52° SSE 17:07:30 37° ESE visible
25 Sep -0.9 18:39:49 10° W 18:40:23 14° W 18:40:23 14° W visible
26 Sep -3.2 16:14:56 10° SW 16:18:06 43° SSE 16:20:53 13° E visible
26 Sep -2.8 17:51:21 10° W 17:53:46 43° WSW 17:53:46 43° WSW visible
27 Sep -3.7 17:02:54 10° WSW 17:06:11 64° S 17:07:06 42° ESE visible
27 Sep -0.7 18:39:33 10° W 18:40:00 13° W 18:40:00 13° W visible
28 Sep -3.6 16:14:26 10° WSW 16:17:43 59° S 16:20:24 14° E visible
28 Sep -2.5 17:51:02 10° W 17:53:18 37° WSW 17:53:18 37° WSW visible
29 Sep -3.7 17:02:32 10° W 17:05:50 62° S 17:06:35 45° SE visible
29 Sep -0.5 18:39:19 10° W 18:39:28 11° W 18:39:28 11° W visible
30 Sep -3.6 16:14:02 10° W 16:17:20 65° S 16:19:51 16° ESE visible
30 Sep -2.1 17:50:43 10° W 17:52:44 28° WSW 17:52:44 28° WSW visible
01 Oct -3.3 17:02:10 10° W 17:05:23 47° SSW 17:06:01 40° SSE visible
02 Oct -3.4 16:13:37 10° W 16:16:54 56° S 16:19:19 17° ESE visible
02 Oct -1.5 17:50:32 10° W 17:52:12 20° WSW 17:52:12 20° WSW visible
